sat.trackr.live / text

‹ back to catalog

STARLINK-37185

NORAD 68340 · 2026-059V

PAYLOAD ACTIVE UNKNOWN

§ Identity

Operator
Country
US
Launch date
2026-03-22
Launch site
AFETR
Launch vehicle
Mass (kg)
RCS (m²)

Purposes: comms

External: N2YO · Heavens-Above · Gunter

§ Orbital elements

Epoch: 2026-09-20T04:44:12.456096Z

Period
93.85 min
Inclination
53.1555°
Eccentricity
0.0001398
Mean motion
15.34407688 rev/d
Perigee alt
461.7 km
Apogee alt
463.6 km
Semi-major
6,840.8 km
B*
3.4218e-4
RAAN
157.1111°
Arg perigee
95.0703°
Mean anomaly
265.0460°
Rev number
2,806

§ Raw data

STARLINK-371851 68340U 26059V   26263.19736639  .00011205  00000+0  34218-3 0  99952 68340  53.1555 157.1111 0001398  95.0703 265.0460 15.34407688 28064

JSON: /api/v1/satellites/68340 · /tle

For live sub-satellite position, see the globe view (requires WebGL).

§ Visibility from observer

Set your observer location to see the next 7 days of passes ≥ 10°. The values pass through the URL so the page stays shareable.

No JS? Fill the form by hand. The geolocation button needs JavaScript.